Time,TemperatureF,DewpointF,PressureIn,WindDirection,WindDirectionDegrees,WindSpeedMPH,WindSpeedGustMPH,Humidity,HourlyPrecipIn,Conditions,Clouds,dailyrainin,SolarRadiationWatts/m^2,SoftwareType,DateUTC
2013-02-11 00:04:00,27.1,18.0,30.57,South,180,3.0,8.0,68,0.00,,,0.00,0,weatherlink.com 1.10,2013-02-11 07:04:00,
2013-02-11 00:19:00,27.0,18.0,30.57,SSE,168,4.0,8.0,68,0.00,,,0.00,0,weatherlink.com 1.10,2013-02-11 07:19:00,
2013-02-11 00:34:00,26.6,18.0,30.57,SSE,168,4.0,12.0,69,0.00,,,0.00,0,weatherlink.com 1.10,2013-02-11 07:34:00,
2013-02-11 00:49:00,26.7,18.0,30.57,SSE,163,5.0,10.0,69,0.00,,,0.00,0,weatherlink.com 1.10,2013-02-11 07:49:00,
2013-02-11 01:04:00,26.5,18.0,30.57,South,189,5.0,7.0,69,0.00,,,0.00,0,weatherlink.com 1.10,2013-02-11 08:04:00,
2013-02-11 01:19:00,26.1,18.0,30.57,SSE,165,2.0,5.0,70,0.00,,,0.00,0,weatherlink.com 1.10,2013-02-11 08:19:00,
2013-02-11 01:34:00,26.0,17.0,30.57,SSE,161,2.0,4.0,70,0.00,,,0.00,0,weatherlink.com 1.10,2013-02-11 08:34:00,
2013-02-11 01:49:00,26.4,17.0,30.56,SSE,163,6.0,8.0,68,0.00,,,0.00,0,weatherlink.com 1.10,2013-02-11 08:49:00,
2013-02-11 02:04:00,26.8,17.0,30.56,SSE,159,8.0,9.0,67,0.00,,,0.00,0,weatherlink.com 1.10,2013-02-11 09:04:00,
2013-02-11 02:19:00,26.4,17.0,30.56,SSE,165,5.0,9.0,67,0.00,,,0.00,0,weatherlink.com 1.10,2013-02-11 09:19:00,
2013-02-11 02:34:00,25.8,17.0,30.57,SSE,167,5.0,9.0,69,0.00,,,0.00,0,weatherlink.com 1.10,2013-02-11 09:34:00,
2013-02-11 02:49:00,25.1,17.0,30.56,South,186,5.0,9.0,71,0.00,,,0.00,0,weatherlink.com 1.10,2013-02-11 09:49:00,
2013-02-11 03:04:00,24.7,17.0,30.56,SSW,195,7.0,9.0,73,0.00,,,0.00,0,weatherlink.com 1.10,2013-02-11 10:04:00,
2013-02-11 03:19:00,24.2,17.0,30.56,South,188,3.0,8.0,74,0.00,,,0.00,0,weatherlink.com 1.10,2013-02-11 10:19:00,
2013-02-11 03:34:00,23.8,17.0,30.55,South,173,2.0,7.0,74,0.00,,,0.00,0,weatherlink.com 1.10,2013-02-11 10:34:00,
2013-02-11 03:49:00,23.9,17.0,30.56,South,170,4.0,8.0,74,0.00,,,0.00,0,weatherlink.com 1.10,2013-02-11 10:49:00,
2013-02-11 04:04:00,24.2,17.0,30.55,SSE,151,10.0,10.0,73,0.00,,,0.00,0,weatherlink.com 1.10,2013-02-11 11:04:00,
2013-02-11 04:19:00,24.4,17.0,30.54,SE,141,11.0,11.0,73,0.00,,,0.00,0,weatherlink.com 1.10,2013-02-11 11:19:00,
2013-02-11 04:34:00,24.5,17.0,30.54,SSE,157,8.0,10.0,72,0.00,,,0.00,0,weatherlink.com 1.10,2013-02-11 11:34:00,
2013-02-11 04:49:00,24.5,17.0,30.54,SSE,165,8.0,10.0,72,0.00,,,0.00,0,weatherlink.com 1.10,2013-02-11 11:49:00,
2013-02-11 05:04:00,24.4,17.0,30.54,South,189,6.0,8.0,72,0.00,,,0.00,0,weatherlink.com 1.10,2013-02-11 12:04:00,
2013-02-11 05:19:00,23.8,17.0,30.55,SSE,168,2.0,6.0,74,0.00,,,0.00,0,weatherlink.com 1.10,2013-02-11 12:19:00,
2013-02-11 05:34:00,23.9,16.0,30.54,South,186,5.0,6.0,73,0.00,,,0.00,0,weatherlink.com 1.10,2013-02-11 12:34:00,
2013-02-11 05:49:00,22.8,17.0,30.55,SSW,208,3.0,4.0,77,0.00,,,0.00,0,weatherlink.com 1.10,2013-02-11 12:49:00,
2013-02-11 06:04:00,23.1,16.0,30.55,South,177,1.0,5.0,75,0.00,,,0.00,0,weatherlink.com 1.10,2013-02-11 13:04:00,
2013-02-11 06:19:00,22.2,16.0,30.55,SW,225,0.0,5.0,78,0.00,,,0.00,0,weatherlink.com 1.10,2013-02-11 13:19:00,
2013-02-11 06:34:00,21.6,16.0,30.56,SW,225,2.0,2.0,79,0.00,,,0.00,0,weatherlink.com 1.10,2013-02-11 13:34:00,
2013-02-11 06:49:00,21.3,16.0,30.57,South,188,0.0,2.0,80,0.00,,,0.00,0,weatherlink.com 1.10,2013-02-11 13:49:00,
2013-02-11 07:04:00,21.8,16.0,30.58,NW,313,3.0,4.0,79,0.00,,,0.00,0,weatherlink.com 1.10,2013-02-11 14:04:00,
2013-02-11 07:19:00,21.9,16.0,30.58,NW,304,0.0,3.0,78,0.00,,,0.00,0,weatherlink.com 1.10,2013-02-11 14:19:00,
2013-02-11 07:34:00,21.8,16.0,30.58,SW,228,0.0,4.0,78,0.00,,,0.00,0,weatherlink.com 1.10,2013-02-11 14:34:00,
2013-02-11 07:49:00,21.8,16.0,30.59,South,184,2.0,5.0,79,0.00,,,0.00,0,weatherlink.com 1.10,2013-02-11 14:49:00,
2013-02-11 08:04:00,21.7,16.0,30.59,South,186,3.0,6.0,80,0.00,,,0.00,7,weatherlink.com 1.10,2013-02-11 15:04:00,
2013-02-11 08:19:00,20.6,17.0,30.59,South,184,4.0,7.0,85,0.00,,,0.00,14,weatherlink.com 1.10,2013-02-11 15:19:00,
2013-02-11 08:34:00,21.5,17.0,30.59,South,178,4.0,10.0,82,0.00,,,0.00,19,weatherlink.com 1.10,2013-02-11 15:34:00,
2013-02-11 08:49:00,21.9,17.0,30.59,SSE,163,8.0,11.0,81,0.00,,,0.00,62,weatherlink.com 1.10,2013-02-11 15:49:00,
2013-02-11 09:04:00,22.9,17.0,30.59,South,189,7.0,7.0,78,0.00,,,0.00,65,weatherlink.com 1.10,2013-02-11 16:04:00,
2013-02-11 09:19:00,22.4,18.0,30.59,South,185,6.0,10.0,83,0.00,,,0.00,62,weatherlink.com 1.10,2013-02-11 16:19:00,
2013-02-11 09:34:00,23.5,18.0,30.58,South,174,4.0,11.0,79,0.00,,,0.00,88,weatherlink.com 1.10,2013-02-11 16:34:00,
2013-02-11 09:49:00,24.6,18.0,30.59,SSE,159,9.0,10.0,77,0.00,,,0.00,91,weatherlink.com 1.10,2013-02-11 16:49:00,
2013-02-11 10:04:00,24.9,16.0,30.59,South,179,1.0,9.0,70,0.00,,,0.00,113,weatherlink.com 1.10,2013-02-11 17:04:00,
2013-02-11 10:19:00,25.1,17.0,30.60,South,173,4.0,11.0,72,0.00,,,0.00,100,weatherlink.com 1.10,2013-02-11 17:19:00,
2013-02-11 10:35:00,25.3,17.0,30.59,SSW,197,9.0,12.0,72,0.00,,,0.00,146,weatherlink.com 1.10,2013-02-11 17:35:00,
2013-02-11 10:50:00,25.5,19.0,30.60,SSW,207,7.0,11.0,75,0.00,,,0.00,146,weatherlink.com 1.10,2013-02-11 17:50:00,
2013-02-11 11:05:00,25.9,19.0,30.61,SW,218,5.0,9.0,74,0.00,,,0.00,139,weatherlink.com 1.10,2013-02-11 18:05:00,
2013-02-11 11:20:00,26.5,19.0,30.61,South,174,2.0,5.0,73,0.00,,,0.00,146,weatherlink.com 1.10,2013-02-11 18:20:00,
2013-02-11 11:35:00,27.1,19.0,30.61,WSW,250,0.0,4.0,72,0.00,,,0.00,153,weatherlink.com 1.10,2013-02-11 18:35:00,
2013-02-11 11:50:00,27.7,19.0,30.61,SSW,207,2.0,3.0,71,0.00,,,0.00,199,weatherlink.com 1.10,2013-02-11 18:50:00,
2013-02-11 12:05:00,28.5,20.0,30.59,SW,217,4.0,6.0,71,0.00,,,0.00,318,weatherlink.com 1.10,2013-02-11 19:05:00,
2013-02-11 12:20:00,29.6,19.0,30.59,SSW,207,4.0,7.0,66,0.00,,,0.00,271,weatherlink.com 1.10,2013-02-11 19:20:00,
2013-02-11 12:35:00,30.0,19.0,30.58,SSW,213,6.0,9.0,65,0.00,,,0.00,232,weatherlink.com 1.10,2013-02-11 19:35:00,
2013-02-11 12:50:00,30.1,19.0,30.58,SW,226,3.0,7.0,63,0.00,,,0.00,227,weatherlink.com 1.10,2013-02-11 19:50:00,
2013-02-11 13:05:00,30.6,19.0,30.57,SW,220,7.0,8.0,63,0.00,,,0.00,246,weatherlink.com 1.10,2013-02-11 20:05:00,
2013-02-11 13:20:00,30.9,19.0,30.56,SW,217,2.0,8.0,62,0.00,,,0.00,243,weatherlink.com 1.10,2013-02-11 20:20:00,
2013-02-11 13:35:00,32.1,21.0,30.56,SSW,209,3.0,6.0,64,0.00,,,0.00,274,weatherlink.com 1.10,2013-02-11 20:35:00,
2013-02-11 13:50:00,32.4,20.0,30.56,SW,221,5.0,8.0,61,0.00,,,0.00,230,weatherlink.com 1.10,2013-02-11 20:50:00,
2013-02-11 14:05:00,32.9,20.0,30.55,SSW,199,5.0,7.0,60,0.00,,,0.00,211,weatherlink.com 1.10,2013-02-11 21:05:00,
2013-02-11 14:20:00,33.1,20.0,30.55,SSW,197,1.0,6.0,60,0.00,,,0.00,207,weatherlink.com 1.10,2013-02-11 21:20:00,
2013-02-11 14:35:00,33.6,20.0,30.55,SW,215,3.0,4.0,59,0.00,,,0.00,202,weatherlink.com 1.10,2013-02-11 21:35:00,
2013-02-11 14:50:00,34.0,22.0,30.55,North,355,4.0,6.0,61,0.00,,,0.00,171,weatherlink.com 1.10,2013-02-11 21:50:00,
2013-02-11 15:05:00,33.9,21.0,30.55,North,351,5.0,6.0,60,0.00,,,0.00,185,weatherlink.com 1.10,2013-02-11 22:05:00,
2013-02-11 15:20:00,34.0,21.0,30.55,NW,324,3.0,6.0,59,0.00,,,0.00,206,weatherlink.com 1.10,2013-02-11 22:20:00,
2013-02-11 15:35:00,34.4,22.0,30.54,NNW,333,4.0,5.0,62,0.00,,,0.00,348,weatherlink.com 1.10,2013-02-11 22:35:00,
2013-02-11 15:50:00,35.0,22.0,30.54,NNW,338,2.0,3.0,59,0.00,,,0.00,306,weatherlink.com 1.10,2013-02-11 22:50:00,
2013-02-11 16:05:00,34.9,22.0,30.53,NNW,334,3.0,5.0,60,0.00,,,0.00,257,weatherlink.com 1.10,2013-02-11 23:05:00,
2013-02-11 16:20:00,34.2,21.0,30.53,NW,326,4.0,6.0,60,0.00,,,0.00,174,weatherlink.com 1.10,2013-02-11 23:20:00,
2013-02-11 16:35:00,33.6,21.0,30.53,NNW,336,5.0,6.0,61,0.00,,,0.00,69,weatherlink.com 1.10,2013-02-11 23:35:00,
2013-02-11 16:50:00,33.8,21.0,30.53,North,5,6.0,7.0,61,0.00,,,0.00,83,weatherlink.com 1.10,2013-02-11 23:50:00,
2013-02-11 17:05:00,33.7,22.0,30.54,NNW,347,8.0,8.0,63,0.00,,,0.00,72,weatherlink.com 1.10,2013-02-12 00:05:00,
2013-02-11 17:20:00,32.9,23.0,30.54,North,350,6.0,8.0,66,0.00,,,0.00,32,weatherlink.com 1.10,2013-02-12 00:20:00,
2013-02-11 17:35:00,32.8,23.0,30.54,NNE,28,5.0,8.0,66,0.00,,,0.00,19,weatherlink.com 1.10,2013-02-12 00:35:00,
2013-02-11 17:50:00,32.7,22.0,30.54,NNE,15,4.0,6.0,65,0.00,,,0.00,5,weatherlink.com 1.10,2013-02-12 00:50:00,
2013-02-11 18:05:00,32.4,23.0,30.54,NNE,25,8.0,13.0,67,0.00,,,0.00,0,weatherlink.com 1.10,2013-02-12 01:05:00,
2013-02-11 18:20:00,32.2,23.0,30.55,North,5,6.0,12.0,68,0.00,,,0.00,0,weatherlink.com 1.10,2013-02-12 01:20:00,
2013-02-11 18:35:00,32.1,23.0,30.55,NNE,12,12.0,12.0,68,0.00,,,0.00,0,weatherlink.com 1.10,2013-02-12 01:35:00,
2013-02-11 18:50:00,32.5,23.0,30.55,NNE,31,9.0,13.0,68,0.00,,,0.00,0,weatherlink.com 1.10,2013-02-12 01:50:00,
2013-02-11 19:05:00,32.8,23.0,30.55,NNE,16,10.0,14.0,68,0.00,,,0.00,0,weatherlink.com 1.10,2013-02-12 02:05:00,
2013-02-11 19:20:00,32.6,23.0,30.55,North,9,5.0,9.0,67,0.00,,,0.00,0,weatherlink.com 1.10,2013-02-12 02:20:00,
2013-02-11 19:35:00,32.8,23.0,30.55,NNE,14,6.0,8.0,67,0.00,,,0.00,0,weatherlink.com 1.10,2013-02-12 02:35:00,
2013-02-11 19:50:00,31.2,22.0,30.55,NE,34,0.0,3.0,70,0.00,,,0.00,0,weatherlink.com 1.10,2013-02-12 02:50:00,
2013-02-11 20:05:00,31.1,22.0,30.56,NNE,31,3.0,4.0,70,0.00,,,0.00,0,weatherlink.com 1.10,2013-02-12 03:05:00,
2013-02-11 20:20:00,30.3,22.0,30.56,NE,42,4.0,4.0,72,0.00,,,0.00,0,weatherlink.com 1.10,2013-02-12 03:20:00,
2013-02-11 20:35:00,29.6,22.0,30.56,SE,142,3.0,4.0,74,0.00,,,0.00,0,weatherlink.com 1.10,2013-02-12 03:35:00,
2013-02-11 20:50:00,29.8,22.0,30.57,South,187,1.0,4.0,73,0.00,,,0.00,0,weatherlink.com 1.10,2013-02-12 03:50:00,
2013-02-11 21:05:00,30.6,23.0,30.57,South,187,0.0,2.0,72,0.00,,,0.00,0,weatherlink.com 1.10,2013-02-12 04:05:00,
2013-02-11 21:20:00,31.0,23.0,30.57,South,187,0.0,1.0,71,0.00,,,0.00,0,weatherlink.com 1.10,2013-02-12 04:20:00,
2013-02-11 21:35:00,31.2,22.0,30.57,ESE,119,0.0,3.0,70,0.00,,,0.00,0,weatherlink.com 1.10,2013-02-12 04:35:00,
2013-02-11 21:50:00,30.4,22.0,30.58,WSW,255,0.0,5.0,72,0.00,,,0.00,0,weatherlink.com 1.10,2013-02-12 04:50:00,
2013-02-11 22:05:00,30.6,23.0,30.58,WSW,255,2.0,3.0,72,0.00,,,0.00,0,weatherlink.com 1.10,2013-02-12 05:05:00,
2013-02-11 22:20:00,30.5,22.0,30.57,East,96,2.0,5.0,72,0.00,,,0.00,0,weatherlink.com 1.10,2013-02-12 05:20:00,
2013-02-11 22:35:00,29.7,23.0,30.57,NE,55,2.0,4.0,75,0.00,,,0.00,0,weatherlink.com 1.10,2013-02-12 05:35:00,
2013-02-11 22:50:00,30.6,23.0,30.58,East,82,2.0,3.0,72,0.00,,,0.00,0,weatherlink.com 1.10,2013-02-12 05:50:00,
2013-02-11 23:05:00,30.6,22.0,30.58,NNE,27,2.0,6.0,71,0.00,,,0.00,0,weatherlink.com 1.10,2013-02-12 06:05:00,
2013-02-11 23:20:00,30.0,22.0,30.58,NNE,20,0.0,5.0,73,0.00,,,0.00,0,weatherlink.com 1.10,2013-02-12 06:20:00,
2013-02-11 23:36:00,29.7,22.0,30.59,North,5,0.0,3.0,74,0.00,,,0.00,0,weatherlink.com 1.10,2013-02-12 06:36:00,
2013-02-11 23:51:00,29.7,22.0,30.59,NE,53,0.0,5.0,74,0.00,,,0.00,0,weatherlink.com 1.10,2013-02-12 06:51:00,